This demonstration page uses our WeatherBlox Daily Observations layout. Learn more.

Left ArrowRight Arrow

Hourly Observations for August 9, 2019

Temp ( °F °C ) Dew Point ( °F °C ) Humidity (%) Winds ( mph kmh ) Pressure ( in mb ) Visibility ( mi km ) Precip ( " mm )
12:56 am 00:56 Mostly Clear 73 23 61 16 65 65 ENE 5 7 29.97 1015 10 16 0.00 0.00
1:56 am 01:56 Partly Cloudy 73 23 61 16 65 65 ENE 6 9 29.96 1014 10 16 0.00 0.00
2:56 am 02:56 Mostly Cloudy 73 23 59 15 61 61 NNE 3 6 29.96 1015 10 16 0.00 0.00
3:56 am 03:56 Mostly Clear 72 22 59 15 65 65 E 2 4 29.96 1015 10 16 0.00 0.00
4:56 am 04:56 Partly Cloudy 72 22 59 15 65 65 ENE 5 7 29.97 1015 10 16 0.00 0.00
5:56 am 05:56 Mostly Cloudy N/A N/A N/A ESE 5 7 N/A 10 16 0.00 0.00
6:56 am 06:56 Mostly Cloudy 72 22 57 14 61 61 E 5 7 30.01 1016 10 16 0.00 0.00
7:56 am 07:56 Mostly Cloudy 72 22 57 14 61 61 E 5 7 30.01 1016 10 16 0.00 0.00
8:56 am 08:56 Mostly Cloudy 73 23 57 14 57 57 ESE 7 11 30.02 1017 10 16 0.00 0.00
12:56 pm 12:56 Partly Cloudy 81 27 61 16 51 51 E 8 13 29.99 1016 10 16 0.00 0.00
1:56 pm 13:56 Partly Cloudy N/A N/A N/A SSE 9 15 29.98 1015 10 16 0.00 0.00
2:56 pm 14:56 Partly Cloudy 84 29 66 19 55 55 ESE 10 17 29.96 1015 10 16 0.00 0.00
3:56 pm 15:56 Partly Cloudy 84 29 68 20 58 58 SE 9 15 29.95 1014 10 16 0.00 0.00
4:56 pm 16:56 Mostly Cloudy 84 29 70 21 62 62 SSE 7 11 29.93 1013 10 16 0.00 0.00
5:56 pm 17:56 Mostly Cloudy 84 29 70 21 62 62 SE 7 11 29.92 1013 10 16 0.00 0.00
5:57 pm 17:57 Partly Cloudy N/A N/A N/A ESE 9 15 N/A 10 16 0.00 0.00
6:56 pm 18:56 Mostly Cloudy 84 29 70 21 62 62 ESE 9 15 29.91 1013 10 16 0.00 0.00
7:56 pm 19:56 Mostly Cloudy 82 28 70 21 66 66 ESE 8 13 29.91 1013 10 16 0.00 0.00
8:56 pm 20:56 Partly Cloudy 81 27 70 21 70 70 ESE 5 7 29.91 1013 10 16 0.00 0.00
9:56 pm 21:56 Partly Cloudy 81 27 70 21 70 70 E 5 7 29.93 1014 10 16 0.00 0.00
10:56 pm 22:56 Partly Cloudy 79 26 70 21 74 74 ESE 6 9 29.92 1013 10 16 0.00 0.00
11:56 pm 23:56 Mostly Cloudy 79 26 70 21 74 74 ENE 3 6 29.95 1014 10 16 0.00 0.00

Powered by AerisWeather